QPF
0.01 0.01 0.00 0.01 0.02 0.02 0.02 0.04 0.06 0.08 0.10 0.10 0.06 0.04 0.03 0.02 0.01 0.01 0.02 0.02 0.02 0.04 0.05 0.05 0.07 0.07 0.04 0.04 0.05 0.05 0.06 0.06 0.04 0.04 0.03 0.03 0.03 0.03 0.04 0.03 0.03 0.02 0.03 0.04
0.02 0.02 0.01 0.01 0.02 0.01 0.01 0.02 0.03 0.05 0.08 0.07 0.03 0.03 0.02 0.01 0.01 0.02 0.02 0.03 0.03 0.04 0.03 0.05 0.07 0.06 0.05 0.07 0.05 0.05 0.05 0.05 0.04 0.03 0.02 0.03 0.03 0.03 0.03 0.03 0.02 0.02 0.02 0.03
0.02 0.02 0.02 0.03 0.03 0.02 0.01 0.01 0.02 0.04 0.05 0.03 0.02 0.02 0.01 0.01 0.02 0.03 0.03 0.03 0.03 0.04 0.04 0.05 0.05 0.05 0.03 0.03 0.04 0.05 0.04 0.03 0.03 0.02 0.02 0.03 0.03 0.03 0.03 0.03 0.03 0.02 0.02 0.01
0.02 0.03 0.04 0.03 0.03 0.03 0.03 0.02 0.03 0.04 0.04 0.03 0.02 0.02 0.01 0.02 0.02 0.03 0.04 0.04 0.03 0.03 0.04 0.03 0.03 0.03 0.02 0.02 0.02 0.03 0.02 0.02 0.02 0.03 0.03 0.03 0.03 0.03 0.04 0.04 0.03 0.02 0.02 0.01
0.02 0.03 0.04 0.04 0.04 0.03 0.04 0.04 0.04 0.04 0.03 0.03 0.02 0.01 0.02 0.03 0.02 0.03 0.05 0.05 0.04 0.04 0.04 0.03 0.03 0.03 0.02 0.02 0.02 0.02 0.02 0.02 0.02 0.02 0.02 0.02 0.03 0.03 0.04 0.03 0.02 0.02 0.02 0.01
0.02 0.03 0.04 0.04 0.03 0.02 0.03 0.04 0.04 0.03 0.03 0.03 0.02 0.02 0.03 0.03 0.02 0.03 0.05 0.06 0.05 0.03 0.03 0.04 0.03 0.03 0.02 0.02 0.03 0.03 0.03 0.03 0.03 0.02 0.02 0.03 0.03 0.03 0.03 0.01 0.01 0.01 0.01 0.01
0.02 0.03 0.04 0.04 0.02 0.02 0.04 0.05 0.03 0.02 0.02 0.02 0.02 0.02 0.02 0.02 0.03 0.03 0.03 0.04 0.06 0.06 0.04 0.04 0.04 0.04 0.04 0.03 0.05 0.04 0.03 0.03 0.03 0.03 0.03 0.03 0.02 0.02 0.02 0.02 0.01 0.01 0.02 0.02
0.02 0.03 0.04 0.05 0.03 0.03 0.04 0.02 0.03 0.03 0.02 0.02 0.02 0.01 0.02 0.03 0.04 0.03 0.01 0.02 0.04 0.04 0.03 0.03 0.04 0.05 0.03 0.03 0.05 0.04 0.03 0.02 0.03 0.04 0.04 0.02 0.02 0.02 0.03 0.04 0.03 0.03 0.03 0.03
0.04 0.05 0.05 0.05 0.04 0.03 0.03 0.03 0.02 0.03 0.02 0.02 0.03 0.02 0.02 0.02 0.03 0.02 0.01 0.01 0.02 0.02 0.02 0.04 0.05 0.04 0.03 0.03 0.03 0.03 0.03 0.03 0.03 0.04 0.04 0.03 0.03 0.03 0.04 0.04 0.04 0.05 0.06 0.07
0.02 0.03 0.03 0.02 0.02 0.01 0.01 0.01 0.01 0.02 0.02 0.03 0.03 0.02 0.01 0.01 0.01 0.02 0.01 0.01 0.02 0.02 0.02 0.02 0.03 0.02 0.02 0.02 0.02 0.03 0.03 0.03 0.02 0.02 0.02 0.02 0.04 0.04 0.04 0.04 0.04 0.04 0.04 0.05
0.01 0.01 0.02 0.01 0.01 0.01 0.01 0.01 0.01 0.01 0.02 0.02 0.02 0.02 0.01 0.01 0.01 0.01 0.01 0.01 0.01 0.02 0.02 0.01 0.01 0.01 0.01 0.02 0.02 0.01 0.02 0.02 0.01 0.01 0.01 0.02 0.03 0.03 0.03 0.03 0.03 0.03 0.03 0.03
0.01 0.01 0.01 0.01 0.01 0.01 0.01 0.01 0.02 0.01 0.01 0.01 0.01 0.01 0.01 0.01 0.01 0.01 0.01 0.02 0.01 0.01 0.01 0.01 0.01 0.01 0.02 0.02 0.01 0.02 0.02 0.01 0.01 0.01 0.01 0.02 0.03 0.03 0.02 0.03 0.03 0.02 0.02 0.02
0.00 0.01 0.01 0.01 0.01 0.01 0.01 0.01 0.01 0.01 0.01 0.00 0.00 0.01 0.00 0.01 0.01 0.01 0.02 0.01 0.01 0.01 0.01 0.00 0.00 0.00 0.01 0.02 0.01 0.01 0.01 0.01 0.01 0.00 0.01 0.01 0.01 0.02 0.02 0.03 0.03 0.03 0.03 0.02
0.00 0.00 0.01 0.01 0.01 0.00 0.00 0.01 0.01 0.01 0.01 0.00 0.00 0.00 0.00 0.01 0.01 0.01 0.02 0.01 0.01 0.01 0.01 0.00 0.00 0.00 0.00 0.00 0.00 0.00 0.00 0.00 0.00 0.01 0.00 0.00 0.00 0.01 0.01 0.03 0.03 0.03 0.03 0.02
0.00 0.00 0.00 0.01 0.00 0.00 0.00 0.01 0.01 0.01 0.01 0.00 0.00 0.00 0.01 0.01 0.01 0.01 0.01 0.01 0.01 0.01 0.01 0.00 0.00 0.01 0.00 0.00 0.01 0.00 0.00 0.00 0.00 0.00 0.00 0.00 0.00 0.00 0.01 0.02 0.02 0.02 0.03 0.03
0.00 0.00 0.00 0.00 0.01 0.01 0.01 0.01 0.01 0.01 0.01 0.00 0.00 0.01 0.01 0.01 0.01 0.01 0.01 0.01 0.01 0.01 0.01 0.01 0.01 0.00 0.00 0.00 0.00 0.00 0.01 0.00 0.00 0.00 0.00 0.00 0.00 0.01 0.01 0.01 0.02 0.01 0.02 0.03
0.02 0.01 0.00 0.01 0.01 0.00 0.01 0.01 0.01 0.01 0.00 0.00 0.01 0.01 0.01 0.01 0.00 0.01 0.01 0.01 0.01 0.00 0.01 0.01 0.01 0.01 0.01 0.00 0.01 0.01 0.00 0.00 0.00 0.00 0.01 0.00 0.00 0.00 0.01 0.01 0.01 0.02 0.02 0.02
0.01 0.01 0.00 0.00 0.00 0.00 0.00 0.01 0.01 0.00 0.00 0.00 0.00 0.00 0.00 0.00 0.00 0.01 0.01 0.01 0.01 0.01 0.00 0.01 0.01 0.01 0.01 0.01 0.01 0.01 0.00 0.00 0.00 0.00 0.00 0.00 0.00 0.00 0.00 0.01 0.01 0.02 0.04 0.04
0.00 0.00 0.00 0.00 0.00 0.00 0.01 0.01 0.00 0.00 0.00 0.00 0.00 0.00 0.00 0.00 0.01 0.00 0.01 0.01 0.01 0.00 0.00 0.00 0.01 0.01 0.01 0.01 0.01 0.01 0.01 0.01 0.01 0.01 0.01 0.00 0.00 0.00 0.01 0.02 0.02 0.03 0.04 0.04
0.00 0.00 0.00 0.00 0.00 0.00 0.00 0.00 0.00 0.00 0.00 0.00 0.00 0.00 0.00 0.00 0.01 0.01 0.01 0.00 0.00 0.00 0.00 0.00 0.01 0.01 0.01 0.01 0.01 0.01 0.02 0.02 0.02 0.02 0.01 0.01 0.01 0.01 0.02 0.03 0.03 0.03 0.02 0.02
0.00 0.00 0.00 0.00 0.00 0.00 0.00 0.00 0.00 0.00 0.00 0.00 0.00 0.00 0.00 0.00 0.00 0.01 0.01 0.01 0.01 0.00 0.00 0.00 0.00 0.01 0.01 0.01 0.01 0.01 0.01 0.01 0.01 0.01 0.01 0.02 0.02 0.02 0.02 0.02 0.02 0.02 0.02 0.01
0.01 0.01 0.00 0.00 0.01 0.01 0.00 0.00 0.00 0.00 0.00 0.00 0.00 0.00 0.00 0.01 0.01 0.01 0.01 0.00 0.01 0.01 0.01 0.01 0.01 0.01 0.01 0.01 0.00 0.00 0.00 0.00 0.01 0.01 0.01 0.01 0.01 0.01 0.01 0.01 0.02 0.02 0.01 0.01
0.01 0.00 0.00 0.00 0.01 0.01 0.00 0.00 0.00 0.00 0.00 0.00 0.00 0.00 0.00 0.00 0.01 0.01 0.01 0.01 0.01 0.01 0.00 0.01 0.01 0.02 0.01 0.00 0.00 0.00 0.01 0.00 0.00 0.00 0.00 0.00 0.00 0.00 0.00 0.01 0.02 0.02 0.02 0.02
0.01 0.00 0.00 0.00 0.00 0.01 0.01 0.00 0.00 0.00 0.00 0.00 0.00 0.00 0.00 0.01 0.01 0.01 0.01 0.01 0.01 0.01 0.00 0.01 0.02 0.01 0.01 0.00 0.00 0.00 0.01 0.01 0.00 0.00 0.00 0.00 0.00 0.00 0.01 0.01 0.02 0.02 0.02 0.02
0.01 0.01 0.00 0.01 0.01 0.01 0.00 0.00 0.00 0.00 0.00 0.00 0.00 0.00 0.00 0.00 0.01 0.01 0.00 0.00 0.00 0.00 0.00 0.01 0.02 0.02 0.01 0.00 0.00 0.00 0.00 0.00 0.01 0.00 0.00 0.00 0.00 0.00 0.01 0.01 0.02 0.02 0.03 0.03
0.01 0.01 0.01 0.01 0.01 0.00 0.00 0.00 0.00 0.00 0.00 0.00 0.00 0.00 0.01 0.01 0.00 0.00 0.00 0.00 0.00 0.00 0.00 0.00 0.01 0.01 0.01 0.00 0.00 0.00 0.00 0.00 0.00 0.00 0.00 0.00 0.00 0.00 0.01 0.02 0.02 0.02 0.03 0.02
0.00 0.01 0.01 0.02 0.01 0.01 0.01 0.01 0.01 0.01 0.00 0.00 0.01 0.00 0.00 0.01 0.00 0.00 0.00 0.00 0.00 0.00 0.00 0.00 0.02 0.02 0.01 0.00 0.00 0.00 0.00 0.00 0.00 0.00 0.00 0.00 0.00 0.00 0.01 0.02 0.03 0.02 0.02 0.02
MSLP
1021.30 1021.37 1021.50 1021.69 1021.95 1022.27 1022.61 1022.93 1023.19 1023.35 1023.39 1023.31 1023.11 1022.83 1022.50 1022.16 1021.83 1021.52 1021.25 1020.99 1020.73 1020.45 1020.11 1019.73 1019.29 1018.81 1018.31 1017.82 1017.37 1016.96 1016.61 1016.32 1016.07 1015.85 1015.65 1015.45 1015.25 1015.04 1014.83 1014.64 1014.45 1014.28 1014.11 1013.92
1021.47 1021.63 1021.85 1022.13 1022.46 1022.83 1023.18 1023.47 1023.67 1023.74 1023.69 1023.50 1023.21 1022.84 1022.45 1022.07 1021.72 1021.42 1021.16 1020.92 1020.69 1020.43 1020.13 1019.77 1019.35 1018.90 1018.43 1017.97 1017.54 1017.18 1016.87 1016.62 1016.41 1016.24 1016.08 1015.91 1015.73 1015.54 1015.33 1015.12 1014.91 1014.70 1014.49 1014.26
1021.52 1021.74 1022.02 1022.36 1022.74 1023.12 1023.47 1023.74 1023.89 1023.90 1023.78 1023.53 1023.18 1022.78 1022.36 1021.98 1021.63 1021.35 1021.11 1020.90 1020.68 1020.44 1020.16 1019.81 1019.41 1018.98 1018.53 1018.10 1017.70 1017.37 1017.11 1016.90 1016.74 1016.60 1016.47 1016.33 1016.17 1015.98 1015.76 1015.52 1015.27 1015.01 1014.74 1014.45
1021.48 1021.73 1022.04 1022.41 1022.80 1023.18 1023.51 1023.74 1023.85 1023.82 1023.65 1023.37 1023.00 1022.60 1022.20 1021.84 1021.53 1021.28 1021.07 1020.88 1020.69 1020.46 1020.19 1019.85 1019.46 1019.04 1018.61 1018.20 1017.83 1017.53 1017.30 1017.12 1016.99 1016.88 1016.77 1016.64 1016.47 1016.26 1016.02 1015.75 1015.45 1015.14 1014.81 1014.46
1021.39 1021.66 1021.98 1022.35 1022.73 1023.08 1023.36 1023.54 1023.60 1023.53 1023.34 1023.05 1022.69 1022.32 1021.96 1021.64 1021.38 1021.17 1021.00 1020.85 1020.68 1020.47 1020.20 1019.87 1019.49 1019.08 1018.66 1018.27 1017.93 1017.65 1017.43 1017.27 1017.14 1017.03 1016.92 1016.78 1016.59 1016.36 1016.09 1015.78 1015.44 1015.08 1014.70 1014.31
1021.28 1021.55 1021.87 1022.22 1022.56 1022.86 1023.09 1023.22 1023.23 1023.12 1022.90 1022.61 1022.28 1021.94 1021.63 1021.38 1021.17 1021.02 1020.89 1020.77 1020.63 1020.43 1020.18 1019.86 1019.50 1019.10 1018.70 1018.32 1017.99 1017.71 1017.50 1017.33 1017.19 1017.06 1016.92 1016.75 1016.53 1016.27 1015.97 1015.63 1015.26 1014.88 1014.48 1014.06
1021.16 1021.43 1021.74 1022.06 1022.35 1022.60 1022.77 1022.83 1022.79 1022.64 1022.41 1022.13 1021.82 1021.52 1021.27 1021.06 1020.91 1020.81 1020.72 1020.64 1020.52 1020.35 1020.12 1019.82 1019.48 1019.10 1018.72 1018.35 1018.03 1017.75 1017.52 1017.33 1017.16 1016.99 1016.80 1016.58 1016.33 1016.04 1015.71 1015.35 1014.98 1014.60 1014.20 1013.79
1021.01 1021.28 1021.58 1021.86 1022.12 1022.31 1022.42 1022.44 1022.35 1022.18 1021.94 1021.66 1021.37 1021.11 1020.90 1020.73 1020.63 1020.56 1020.51 1020.45 1020.36 1020.22 1020.01 1019.75 1019.43 1019.09 1018.73 1018.38 1018.06 1017.78 1017.52 1017.29 1017.07 1016.85 1016.61 1016.34 1016.04 1015.72 1015.38 1015.02 1014.66 1014.30 1013.94 1013.57
1020.82 1021.09 1021.37 1021.64 1021.86 1022.02 1022.09 1022.06 1021.95 1021.76 1021.51 1021.25 1020.98 1020.74 1020.56 1020.42 1020.34 1020.30 1020.27 1020.23 1020.16 1020.05 1019.88 1019.65 1019.37 1019.06 1018.74 1018.42 1018.10 1017.81 1017.53 1017.25 1016.98 1016.69 1016.39 1016.07 1015.73 1015.38 1015.03 1014.68 1014.35 1014.03 1013.72 1013.41
1020.55 1020.83 1021.10 1021.36 1021.57 1021.71 1021.76 1021.72 1021.60 1021.41 1021.17 1020.91 1020.66 1020.45 1020.27 1020.16 1020.08 1020.04 1020.02 1020.00 1019.94 1019.85 1019.71 1019.53 1019.30 1019.03 1018.75 1018.45 1018.15 1017.85 1017.54 1017.22 1016.89 1016.54 1016.18 1015.81 1015.43 1015.05 1014.70 1014.37 1014.07 1013.80 1013.55 1013.30
1020.20 1020.47 1020.76 1021.02 1021.23 1021.37 1021.43 1021.40 1021.29 1021.12 1020.90 1020.66 1020.43 1020.22 1020.05 1019.93 1019.85 1019.81 1019.78 1019.75 1019.71 1019.64 1019.53 1019.38 1019.20 1018.98 1018.74 1018.47 1018.18 1017.87 1017.54 1017.19 1016.81 1016.41 1015.99 1015.57 1015.16 1014.77 1014.41 1014.10 1013.83 1013.60 1013.39 1013.19
1019.75 1020.03 1020.32 1020.60 1020.83 1021.00 1021.08 1021.09 1021.01 1020.87 1020.68 1020.46 1020.25 1020.04 1019.87 1019.74 1019.64 1019.57 1019.53 1019.49 1019.45 1019.39 1019.31 1019.20 1019.05 1018.88 1018.67 1018.43 1018.15 1017.84 1017.50 1017.12 1016.70 1016.26 1015.81 1015.35 1014.91 1014.51 1014.15 1013.85 1013.59 1013.39 1013.21 1013.03
1019.22 1019.50 1019.82 1020.12 1020.38 1020.59 1020.72 1020.77 1020.74 1020.64 1020.48 1020.29 1020.09 1019.88 1019.70 1019.55 1019.42 1019.33 1019.26 1019.21 1019.16 1019.11 1019.04 1018.95 1018.84 1018.69 1018.51 1018.29 1018.03 1017.72 1017.37 1016.97 1016.54 1016.07 1015.60 1015.13 1014.68 1014.27 1013.91 1013.60 1013.35 1013.15 1012.97 1012.79
1018.61 1018.92 1019.26 1019.60 1019.91 1020.17 1020.35 1020.46 1020.47 1020.41 1020.29 1020.12 1019.92 1019.71 1019.52 1019.34 1019.19 1019.07 1018.97 1018.90 1018.83 1018.78 1018.71 1018.63 1018.53 1018.41 1018.24 1018.03 1017.78 1017.47 1017.11 1016.71 1016.27 1015.81 1015.33 1014.86 1014.42 1014.02 1013.66 1013.36 1013.10 1012.88 1012.68 1012.47
1017.97 1018.32 1018.70 1019.08 1019.45 1019.76 1019.99 1020.14 1020.20 1020.18 1020.08 1019.92 1019.73 1019.52 1019.30 1019.10 1018.93 1018.78 1018.66 1018.55 1018.47 1018.40 1018.33 1018.24 1018.14 1018.01 1017.85 1017.63 1017.38 1017.07 1016.71 1016.31 1015.89 1015.44 1014.98 1014.54 1014.12 1013.74 1013.40 1013.10 1012.84 1012.59 1012.36 1012.11
1017.33 1017.72 1018.15 1018.59 1019.01 1019.37 1019.65 1019.84 1019.93 1019.93 1019.85 1019.70 1019.51 1019.29 1019.06 1018.84 1018.64 1018.46 1018.32 1018.20 1018.09 1018.00 1017.90 1017.80 1017.68 1017.53 1017.34 1017.11 1016.84 1016.52 1016.17 1015.78 1015.37 1014.96 1014.55 1014.15 1013.78 1013.44 1013.13 1012.84 1012.57 1012.31 1012.04 1011.74
1016.72 1017.18 1017.66 1018.16 1018.62 1019.02 1019.34 1019.56 1019.67 1019.68 1019.61 1019.46 1019.26 1019.03 1018.79 1018.56 1018.34 1018.15 1017.98 1017.84 1017.71 1017.59 1017.47 1017.33 1017.18 1016.99 1016.76 1016.50 1016.20 1015.87 1015.51 1015.14 1014.76 1014.39 1014.03 1013.69 1013.38 1013.09 1012.82 1012.57 1012.31 1012.04 1011.74 1011.41
1016.19 1016.70 1017.25 1017.79 1018.29 1018.72 1019.06 1019.29 1019.41 1019.43 1019.35 1019.20 1019.00 1018.77 1018.52 1018.28 1018.06 1017.85 1017.67 1017.51 1017.37 1017.22 1017.06 1016.88 1016.68 1016.44 1016.16 1015.85 1015.52 1015.16 1014.79 1014.43 1014.08 1013.75 1013.45 1013.17 1012.93 1012.70 1012.49 1012.27 1012.03 1011.76 1011.45 1011.10
1015.76 1016.32 1016.90 1017.47 1017.99 1018.44 1018.78 1019.02 1019.14 1019.15 1019.08 1018.93 1018.72 1018.49 1018.25 1018.01 1017.79 1017.59 1017.40 1017.23 1017.07 1016.89 1016.70 1016.47 1016.21 1015.92 1015.59 1015.23 1014.85 1014.46 1014.07 1013.71 1013.38 1013.08 1012.83 1012.61 1012.42 1012.26 1012.09 1011.91 1011.70 1011.44 1011.14 1010.78
1015.44 1016.02 1016.62 1017.19 1017.71 1018.15 1018.48 1018.71 1018.83 1018.84 1018.76 1018.62 1018.43 1018.21 1017.98 1017.76 1017.55 1017.35 1017.17 1017.00 1016.81 1016.61 1016.38 1016.12 1015.81 1015.46 1015.07 1014.66 1014.23 1013.81 1013.40 1013.03 1012.70 1012.43 1012.20 1012.02 1011.88 1011.75 1011.62 1011.47 1011.28 1011.05 1010.75 1010.41
1015.23 1015.79 1016.36 1016.91 1017.40 1017.81 1018.13 1018.34 1018.45 1018.46 1018.40 1018.27 1018.10 1017.90 1017.70 1017.50 1017.31 1017.13 1016.96 1016.78 1016.59 1016.37 1016.11 1015.80 1015.45 1015.06 1014.62 1014.16 1013.69 1013.23 1012.80 1012.42 1012.08 1011.81 1011.60 1011.44 1011.31 1011.20 1011.08 1010.95 1010.77 1010.55 1010.27 1009.94
1015.08 1015.58 1016.09 1016.58 1017.02 1017.39 1017.68 1017.88 1017.98 1018.01 1017.97 1017.86 1017.72 1017.56 1017.39 1017.22 1017.06 1016.89 1016.73 1016.55 1016.35 1016.12 1015.84 1015.50 1015.12 1014.69 1014.22 1013.73 1013.23 1012.75 1012.30 1011.89 1011.55 1011.26 1011.04 1010.87 1010.73 1010.61 1010.49 1010.35 1010.17 1009.95 1009.68 1009.38
1014.94 1015.35 1015.77 1016.17 1016.54 1016.86 1017.12 1017.31 1017.42 1017.47 1017.45 1017.39 1017.29 1017.17 1017.04 1016.90 1016.76 1016.62 1016.46 1016.28 1016.07 1015.82 1015.53 1015.18 1014.78 1014.34 1013.85 1013.35 1012.84 1012.34 1011.88 1011.46 1011.10 1010.80 1010.55 1010.35 1010.19 1010.04 1009.89 1009.73 1009.53 1009.30 1009.04 1008.76
1014.75 1015.04 1015.34 1015.66 1015.95 1016.22 1016.45 1016.63 1016.76 1016.84 1016.87 1016.86 1016.81 1016.74 1016.64 1016.53 1016.41 1016.28 1016.12 1015.94 1015.73 1015.47 1015.17 1014.81 1014.41 1013.97 1013.49 1012.99 1012.49 1012.01 1011.54 1011.12 1010.75 1010.43 1010.15 1009.92 1009.72 1009.53 1009.34 1009.14 1008.92 1008.68 1008.42 1008.16
1014.46 1014.61 1014.81 1015.02 1015.25 1015.48 1015.69 1015.88 1016.04 1016.16 1016.23 1016.28 1016.28 1016.25 1016.20 1016.12 1016.01 1015.88 1015.72 1015.53 1015.31 1015.04 1014.74 1014.39 1014.00 1013.58 1013.13 1012.66 1012.18 1011.72 1011.28 1010.87 1010.50 1010.16 1009.86 1009.60 1009.35 1009.12 1008.89 1008.65 1008.41 1008.16 1007.91 1007.67
1014.01 1014.06 1014.15 1014.29 1014.47 1014.66 1014.88 1015.08 1015.27 1015.44 1015.58 1015.67 1015.73 1015.75 1015.72 1015.66 1015.57 1015.44 1015.27 1015.07 1014.84 1014.57 1014.27 1013.94 1013.57 1013.18 1012.76 1012.34 1011.91 1011.49 1011.08 1010.69 1010.33 1009.99 1009.68 1009.39 1009.11 1008.84 1008.58 1008.31 1008.05 1007.80 1007.56 1007.35
1013.42 1013.38 1013.40 1013.49 1013.64 1013.82 1014.05 1014.28 1014.51 1014.73 1014.92 1015.07 1015.18 1015.23 1015.24 1015.19 1015.11 1014.97 1014.80 1014.60 1014.36 1014.09 1013.80 1013.48 1013.15 1012.79 1012.43 1012.05 1011.68 1011.30 1010.94 1010.58 1010.24 1009.91 1009.60 1009.29 1009.00 1008.70 1008.42 1008.14 1007.86 1007.62 1007.40 1007.23
Thickness
5692 5693 5691 5687 5685 5686 5684 5683 5678 5677 5677 5676 5675 5673 5673 5673 5672 5671 5669 5668 5666 5665 5664 5664 5664 5663 5663 5662 5662 5661 5660 5659 5657 5656 5656 5655 5654 5653 5652 5651 5650 5649 5647 5645
5686 5689 5687 5682 5683 5683 5681 5682 5680 5678 5674 5678 5676 5675 5673 5672 5670 5668 5667 5666 5665 5664 5662 5662 5662 5661 5661 5660 5660 5660 5658 5658 5657 5656 5655 5654 5653 5651 5650 5648 5647 5646 5644 5643
5682 5687 5683 5675 5679 5680 5680 5681 5679 5674 5673 5675 5673 5672 5671 5670 5669 5666 5665 5664 5663 5662 5661 5660 5660 5659 5659 5659 5659 5658 5657 5656 5655 5654 5653 5652 5652 5650 5648 5646 5644 5642 5641 5640
5684 5679 5664 5676 5686 5684 5679 5678 5680 5678 5677 5676 5674 5674 5673 5671 5668 5666 5665 5664 5663 5662 5661 5660 5660 5659 5659 5659 5658 5657 5656 5656 5655 5654 5653 5651 5650 5647 5645 5644 5642 5640 5639 5638
5680 5675 5674 5678 5681 5679 5675 5674 5678 5676 5676 5677 5677 5676 5673 5671 5669 5666 5665 5663 5662 5662 5661 5660 5660 5659 5659 5658 5658 5657 5656 5655 5655 5654 5652 5650 5647 5645 5643 5641 5640 5639 5638 5636
5678 5669 5664 5673 5682 5685 5678 5671 5677 5676 5674 5675 5675 5672 5670 5669 5668 5666 5664 5662 5661 5661 5661 5660 5659 5659 5658 5657 5656 5655 5655 5655 5654 5652 5650 5648 5645 5643 5642 5640 5639 5638 5637 5636
5677 5671 5675 5678 5682 5682 5667 5667 5675 5675 5675 5674 5672 5670 5669 5669 5667 5665 5663 5662 5661 5660 5660 5659 5658 5657 5656 5656 5655 5654 5655 5654 5652 5650 5648 5647 5644 5641 5640 5640 5639 5637 5636 5635
5674 5669 5669 5678 5678 5671 5669 5674 5675 5675 5674 5672 5671 5670 5669 5668 5666 5664 5662 5661 5660 5658 5658 5658 5658 5656 5655 5654 5654 5654 5654 5653 5651 5649 5648 5647 5643 5641 5640 5638 5638 5637 5635 5634
5674 5673 5676 5679 5676 5676 5675 5673 5674 5673 5673 5671 5669 5668 5668 5667 5665 5663 5662 5660 5659 5658 5656 5656 5656 5656 5654 5653 5654 5654 5653 5651 5650 5648 5647 5645 5643 5641 5640 5639 5639 5639 5637 5635
5673 5677 5678 5679 5678 5677 5676 5675 5675 5674 5672 5671 5669 5668 5667 5665 5664 5662 5661 5659 5658 5657 5656 5654 5655 5655 5653 5653 5653 5652 5650 5649 5649 5647 5646 5644 5643 5643 5641 5640 5639 5638 5635 5633
5672 5676 5677 5677 5678 5677 5676 5675 5674 5673 5672 5670 5668 5667 5666 5664 5662 5661 5659 5658 5658 5656 5655 5654 5654 5654 5653 5652 5651 5649 5648 5648 5648 5648 5647 5644 5643 5640 5639 5636 5634 5631 5630 5629
5672 5675 5674 5675 5677 5678 5675 5673 5671 5670 5669 5669 5667 5665 5664 5662 5661 5660 5658 5657 5657 5656 5656 5656 5655 5654 5653 5652 5651 5648 5648 5647 5649 5649 5647 5647 5645 5642 5634 5631 5627 5624 5620 5618
5675 5678 5677 5677 5677 5677 5675 5673 5671 5668 5667 5665 5665 5664 5662 5660 5660 5659 5657 5657 5656 5656 5656 5656 5655 5654 5653 5652 5651 5649 5647 5647 5648 5648 5648 5646 5645 5643 5639 5632 5625 5621 5618 5615
5674 5673 5672 5673 5674 5674 5673 5671 5670 5667 5665 5664 5662 5661 5660 5658 5657 5657 5656 5656 5656 5656 5656 5655 5654 5653 5653 5652 5650 5649 5648 5647 5645 5646 5646 5645 5645 5643 5641 5637 5633 5629 5621 5614
5671 5671 5672 5673 5672 5670 5669 5668 5665 5663 5661 5660 5659 5658 5657 5655 5654 5654 5655 5655 5655 5655 5655 5655 5654 5653 5653 5652 5650 5648 5648 5648 5646 5646 5645 5645 5644 5643 5641 5637 5634 5630 5627 5619
5668 5669 5670 5669 5667 5666 5666 5664 5661 5659 5658 5657 5656 5655 5655 5654 5654 5654 5654 5654 5652 5652 5652 5652 5651 5652 5652 5651 5649 5648 5647 5643 5642 5645 5645 5644 5643 5641 5638 5635 5632 5629 5625 5620
5662 5662 5663 5663 5664 5664 5663 5662 5660 5659 5657 5655 5654 5654 5653 5652 5652 5652 5652 5652 5651 5651 5650 5649 5649 5650 5651 5650 5648 5650 5650 5648 5640 5643 5643 5643 5640 5638 5635 5632 5630 5627 5623 5617
5663 5663 5664 5663 5663 5662 5661 5660 5659 5657 5655 5654 5654 5652 5651 5650 5649 5649 5650 5650 5649 5648 5648 5648 5648 5648 5649 5648 5647 5648 5648 5648 5645 5643 5641 5639 5637 5635 5633 5630 5627 5623 5620 5615
5659 5660 5660 5660 5661 5660 5658 5656 5655 5654 5653 5652 5651 5649 5648 5648 5648 5648 5648 5647 5646 5645 5646 5647 5642 5644 5645 5645 5643 5644 5645 5645 5643 5641 5639 5634 5633 5633 5630 5627 5624 5620 5617 5612
5654 5655 5656 5657 5657 5656 5654 5653 5651 5650 5649 5649 5647 5646 5646 5646 5646 5646 5645 5644 5646 5646 5645 5643 5642 5642 5642 5642 5638 5643 5643 5642 5640 5638 5636 5634 5631 5629 5627 5624 5621 5617 5613 5609
5648 5649 5650 5651 5650 5650 5650 5648 5646 5645 5645 5645 5644 5643 5643 5643 5643 5643 5642 5643 5643 5642 5641 5638 5639 5640 5641 5639 5635 5640 5641 5639 5638 5636 5634 5631 5629 5626 5624 5621 5617 5614 5610 5605
5641 5642 5643 5644 5644 5643 5644 5643 5642 5642 5641 5640 5641 5641 5640 5639 5640 5640 5640 5640 5640 5636 5638 5640 5640 5637 5636 5632 5638 5639 5639 5637 5636 5634 5632 5629 5626 5624 5621 5618 5614 5611 5607 5603
5633 5635 5635 5636 5637 5637 5637 5638 5637 5637 5636 5637 5637 5637 5637 5637 5639 5639 5638 5639 5639 5633 5634 5637 5634 5629 5627 5631 5635 5636 5636 5635 5634 5632 5630 5627 5625 5622 5619 5615 5612 5608 5605 5601
5624 5626 5627 5629 5630 5630 5630 5632 5633 5632 5633 5634 5635 5635 5634 5635 5636 5638 5639 5635 5632 5629 5631 5630 5626 5624 5622 5629 5632 5633 5633 5631 5631 5630 5629 5626 5624 5621 5617 5613 5609 5606 5603 5599
5616 5618 5620 5621 5622 5625 5625 5627 5627 5627 5629 5632 5633 5633 5634 5634 5634 5634 5634 5632 5629 5626 5629 5627 5622 5621 5623 5628 5630 5630 5630 5628 5628 5626 5624 5622 5621 5619 5615 5612 5608 5605 5601 5598
5608 5611 5614 5614 5616 5618 5621 5622 5623 5624 5626 5628 5629 5631 5631 5632 5631 5630 5629 5629 5628 5624 5627 5627 5626 5621 5625 5627 5628 5627 5626 5625 5623 5621 5620 5619 5617 5615 5612 5609 5605 5603 5600 5597
5601 5604 5606 5608 5611 5613 5616 5617 5617 5618 5620 5622 5623 5626 5627 5627 5627 5627 5626 5626 5626 5625 5625 5625 5625 5625 5624 5624 5624 5622 5621 5620 5619 5618 5616 5615 5613 5610 5609 5606 5604 5601 5598 5595